Northern Power — A8TL6 — position and weather

sailwx.info

Track history (hours):
 
Tides and Currents Weather Stations Pressure Air Temp Water Temp Dewpoint Dewpoint Depression Visibility Wind Speed Wind Dir Waves Ship Positions

Northern Power

Last reported at 2014-Nov-01 02:34 UTC. Time now 2014-Nov-01 03:16 UTC.
Position N 53°57' E 008°37'.

Length 264 m; draft 9.6 m.

Type: Ship (hazmat cat A). MMSI: 636091835.

Date/timePositionNaut miles runAvg speedWind from/ knotsBaromVisibWave heightAir tempDewpointWater temp
2014-Nov-01 02:34N 53°57' E 008°37'1212.1
2014-Nov-01 01:33N 53°51' E 008°54'1313.1
2014-Nov-01 00:34N 53°52' E 009°16'1313.4
2014-Oct-31 23:34N 53°42' E 009°30'1111.2
2014-Oct-31 22:33N 53°34' E 009°43'7 7.3
2014-Oct-31 21:33N 53°32' E 009°55'0 0.0
2014-Oct-31 20:31N 53°32' E 009°55'0 0.0
2014-Oct-31 19:31N 53°32' E 009°55'0 0.0
2014-Oct-31 18:31N 53°32' E 009°55'0 0.0
2014-Oct-31 17:31N 53°32' E 009°55'0 0.0
2014-Oct-31 16:31N 53°32' E 009°55'0 0.0
2014-Oct-31 15:31N 53°32' E 009°55'0 0.0
2014-Oct-31 14:31N 53°32' E 009°55'0 0.0
2014-Oct-31 13:31N 53°32' E 009°55'0 0.0
2014-Oct-31 12:31N 53°32' E 009°55'0 0.0
2014-Oct-31 11:31N 53°32' E 009°55'0 0.0
2014-Oct-31 10:31N 53°32' E 009°55'0 0.0
2014-Oct-31 09:31N 53°32' E 009°55'0 0.0
2014-Oct-31 08:31N 53°32' E 009°55'0 0.0
2014-Oct-31 07:28N 53°32' E 009°55'0 0.0
2014-Oct-31 06:31N 53°32' E 009°55'0 0.0
2014-Oct-31 05:31N 53°32' E 009°55'0 0.0
2014-Oct-31 04:31N 53°32' E 009°55'0 0.0
2014-Oct-31 03:31N 53°32' E 009°55'0 0.0
2014-Oct-31 02:31N 53°32' E 009°55'0 0.0
2014-Oct-31 01:34N 53°32' E 009°55'0 0.0
2014-Oct-31 00:31N 53°32' E 009°55'0 0.0
2014-Oct-30 23:34N 53°32' E 009°55'0 0.0
2014-Oct-30 22:32N 53°32' E 009°55'0 0.0
2014-Oct-30 21:31N 53°32' E 009°55'0 0.0
2014-Oct-30 20:32N 53°32' E 009°55'0 0.0
2014-Oct-30 19:31N 53°32' E 009°55'0 0.0
2014-Oct-30 18:31N 53°32' E 009°55'0 0.0
2014-Oct-30 17:31N 53°32' E 009°55'0 0.0
2014-Oct-30 16:34N 53°32' E 009°55'0 0.0
2014-Oct-30 15:24N 53°32' E 009°55'0 0.0
2014-Oct-30 14:33N 53°32' E 009°55'0 0.0
2014-Oct-30 13:33N 53°32' E 009°55'0 0.0
2014-Oct-30 12:32N 53°32' E 009°55'0 0.0
2014-Oct-30 11:32N 53°32' E 009°55'0 0.2
2014-Oct-30 10:32N 53°32' E 009°55'4 3.9
2014-Oct-30 09:33N 53°33' E 009°49'10 9.9
2014-Oct-30 08:33N 53°37' E 009°33'10 9.9
2014-Oct-30 07:33N 53°45' E 009°24'1211.7
2014-Oct-30 06:34N 53°53' E 009°09'1313.3
2014-Oct-30 05:34N 53°51' E 008°47'1515.2
2014-Oct-30 04:34N 53°59' E 008°25'1312.7
2014-Oct-30 03:34N 53°59' E 008°04'7 7.2
2014-Oct-30 02:33N 53°56' E 007°53'0 0.0
2014-Oct-30 01:33N 53°56' E 007°53'0 0.0
2014-Oct-30 00:33N 53°56' E 007°53'0 0.0
2014-Oct-29 23:33N 53°56' E 007°53'0 0.4
2014-Oct-29 22:34N 53°55' E 007°52'7 6.5
2014-Oct-29 21:33N 53°56' E 007°41'1715.7
2014-Oct-29 20:30N 53°53' E 007°14'2510.3
2014-Oct-29 18:06N 53°48' E 006°33'10 9.3
2014-Oct-29 17:04N 53°45' E 006°17'14 9.4
2014-Oct-29 15:33N 53°40' E 005°55'1111.4
2014-Oct-29 14:33N 53°36' E 005°37'1312.8
2014-Oct-29 13:33N 53°31' E 005°16'1111.4
2014-Oct-29 12:33N 53°28' E 004°58'1211.8
2014-Oct-29 11:33N 53°22' E 004°40'2713.0
2014-Oct-29 09:28N 52°58' E 004°19'1213.5
2014-Oct-29 08:33N 52°48' E 004°09'1514.9
2014-Oct-29 07:33N 52°37' E 003°52'1414.4
2014-Oct-29 06:33N 52°26' E 003°36'6014.9
2014-Oct-29 02:32N 51°42' E 002°31'1515.0
2014-Oct-29 01:33N 51°30' E 002°16'1514.9
2014-Oct-29 00:34N 51°17' E 002°06'1414.5
2014-Oct-28 23:33N 51°08' E 001°47'1313.0
2014-Oct-28 22:33N 50°59' E 001°33'1414.0
2014-Oct-28 21:33N 50°47' E 001°22'4314.3
2014-Oct-28 18:33N 50°24' E 000°25'4414.7
2014-Oct-28 15:33N 50°13' W 000°43'3514.7
2014-Oct-28 13:11N 50°03' W 001°34'1116.7
2014-Oct-28 12:33N 50°01' W 001°50'1616.0
2014-Oct-28 11:34N 49°57' W 002°15'1615.7
2014-Oct-28 10:32N 49°54' W 002°39'1515.4
2014-Oct-28 09:33N 49°47' W 002°60'1515.2
2014-Oct-28 08:34N 49°39' W 003°20'1515.1
2014-Oct-28 07:33N 49°31' W 003°40'13114.6
2014-Oct-27 22:32N 48°05' W 006°10'1614.7
2014-Oct-27 21:28N 47°50' W 006°19'2814.8
2014-Oct-27 19:33N 47°26' W 006°41'1515.2
2014-Oct-27 18:34N 47°12' W 006°51'1814.9
2014-Oct-27 17:21N 46°56' W 007°03'1215.1
2014-Oct-27 16:33N 46°45' W 007°11'1715.1
2014-Oct-27 15:24N 46°30' W 007°22'1314.8
2014-Oct-27 14:30N 46°18' W 007°31'1515.3
2014-Oct-27 13:33N 46°05' W 007°41'48414.6
2014-Oct-26 04:19N 38°09' W 009°41'1114.9
2014-Oct-26 03:33N 37°58' W 009°38'1514.9
2014-Oct-26 02:33N 37°44' W 009°34'1514.9
2014-Oct-26 01:33N 37°29' W 009°29'1614.6
2014-Oct-26 00:29N 37°14' W 009°25'1714.9
2014-Oct-25 23:22N 36°58' W 009°20'1314.4
2014-Oct-25 22:28N 36°47' W 009°11'1814.5
2014-Oct-25 21:14N 36°40' W 008°51'1414.7
2014-Oct-25 20:18N 36°35' W 008°35'15014.8
2014-Oct-25 10:08N 35°57' W 005°35'915.4
2014-Oct-25 09:33N 36°01' W 005°24'22114.7
2014-Oct-24 18:31N 36°28' W 000°53'1414.8
2014-Oct-24 17:32N 36°30' W 000°35'1514.9
2014-Oct-24 16:33N 36°32' W 000°17'1514.8
2014-Oct-24 15:33N 36°36' E 000°01'1515.2
2014-Oct-24 14:33N 36°38' E 000°20'1514.9
2014-Oct-24 13:34N 36°41' E 000°38'1514.9
2014-Oct-24 12:33N 36°44' E 000°56'1514.9
2014-Oct-24 11:33N 36°47' E 001°15'1515.4
2014-Oct-24 10:33N 36°50' E 001°34'1515.1
2014-Oct-24 09:33N 36°52' E 001°52'1514.9
2014-Oct-24 08:33N 36°55' E 002°10'1615.0
2014-Oct-24 07:31N 36°58' E 002°29'1515.0
2014-Oct-24 06:31N 37°01' E 002°48'1515.2
2014-Oct-24 05:31N 37°04' E 003°07'  
Track history (hours):
 
Tides and Currents Weather Stations Pressure Air Temp Water Temp Dewpoint Dewpoint Depression Visibility Wind Speed Wind Dir Waves Ship Positions

Northern Power

Last reported at 2014-Nov-01 02:34 UTC. Time now 2014-Nov-01 03:16 UTC.
Position N 53°57' E 008°37'.

Length 264 m; draft 9.6 m.

Type: Ship (hazmat cat A). MMSI: 636091835.

Date/timePositionNaut miles runAvg speedWind from/ knotsBaromVisibWave heightAir tempDewpointWater temp
2014-Nov-01 02:34N 53°57' E 008°37'1212.1
2014-Nov-01 01:33N 53°51' E 008°54'1313.1
2014-Nov-01 00:34N 53°52' E 009°16'1313.4
2014-Oct-31 23:34N 53°42' E 009°30'1111.2
2014-Oct-31 22:33N 53°34' E 009°43'7 7.3
2014-Oct-31 21:33N 53°32' E 009°55'0 0.0
2014-Oct-31 20:31N 53°32' E 009°55'0 0.0
2014-Oct-31 19:31N 53°32' E 009°55'0 0.0
2014-Oct-31 18:31N 53°32' E 009°55'0 0.0
2014-Oct-31 17:31N 53°32' E 009°55'0 0.0
2014-Oct-31 16:31N 53°32' E 009°55'0 0.0
2014-Oct-31 15:31N 53°32' E 009°55'0 0.0
2014-Oct-31 14:31N 53°32' E 009°55'0 0.0
2014-Oct-31 13:31N 53°32' E 009°55'0 0.0
2014-Oct-31 12:31N 53°32' E 009°55'0 0.0
2014-Oct-31 11:31N 53°32' E 009°55'0 0.0
2014-Oct-31 10:31N 53°32' E 009°55'0 0.0
2014-Oct-31 09:31N 53°32' E 009°55'0 0.0
2014-Oct-31 08:31N 53°32' E 009°55'0 0.0
2014-Oct-31 07:28N 53°32' E 009°55'0 0.0
2014-Oct-31 06:31N 53°32' E 009°55'0 0.0
2014-Oct-31 05:31N 53°32' E 009°55'0 0.0
2014-Oct-31 04:31N 53°32' E 009°55'0 0.0
2014-Oct-31 03:31N 53°32' E 009°55'0 0.0
2014-Oct-31 02:31N 53°32' E 009°55'0 0.0
2014-Oct-31 01:34N 53°32' E 009°55'0 0.0
2014-Oct-31 00:31N 53°32' E 009°55'0 0.0
2014-Oct-30 23:34N 53°32' E 009°55'0 0.0
2014-Oct-30 22:32N 53°32' E 009°55'0 0.0
2014-Oct-30 21:31N 53°32' E 009°55'0 0.0
2014-Oct-30 20:32N 53°32' E 009°55'0 0.0
2014-Oct-30 19:31N 53°32' E 009°55'0 0.0
2014-Oct-30 18:31N 53°32' E 009°55'0 0.0
2014-Oct-30 17:31N 53°32' E 009°55'0 0.0
2014-Oct-30 16:34N 53°32' E 009°55'0 0.0
2014-Oct-30 15:24N 53°32' E 009°55'0 0.0
2014-Oct-30 14:33N 53°32' E 009°55'0 0.0
2014-Oct-30 13:33N 53°32' E 009°55'0 0.0
2014-Oct-30 12:32N 53°32' E 009°55'0 0.0
2014-Oct-30 11:32N 53°32' E 009°55'0 0.2
2014-Oct-30 10:32N 53°32' E 009°55'4 3.9
2014-Oct-30 09:33N 53°33' E 009°49'10 9.9
2014-Oct-30 08:33N 53°37' E 009°33'10 9.9
2014-Oct-30 07:33N 53°45' E 009°24'1211.7
2014-Oct-30 06:34N 53°53' E 009°09'1313.3
2014-Oct-30 05:34N 53°51' E 008°47'1515.2
2014-Oct-30 04:34N 53°59' E 008°25'1312.7
2014-Oct-30 03:34N 53°59' E 008°04'7 7.2
2014-Oct-30 02:33N 53°56' E 007°53'0 0.0
2014-Oct-30 01:33N 53°56' E 007°53'0 0.0
2014-Oct-30 00:33N 53°56' E 007°53'0 0.0
2014-Oct-29 23:33N 53°56' E 007°53'0 0.4
2014-Oct-29 22:34N 53°55' E 007°52'7 6.5
2014-Oct-29 21:33N 53°56' E 007°41'1715.7
2014-Oct-29 20:30N 53°53' E 007°14'2510.3
2014-Oct-29 18:06N 53°48' E 006°33'10 9.3
2014-Oct-29 17:04N 53°45' E 006°17'14 9.4
2014-Oct-29 15:33N 53°40' E 005°55'1111.4
2014-Oct-29 14:33N 53°36' E 005°37'1312.8
2014-Oct-29 13:33N 53°31' E 005°16'1111.4
2014-Oct-29 12:33N 53°28' E 004°58'1211.8
2014-Oct-29 11:33N 53°22' E 004°40'2713.0
2014-Oct-29 09:28N 52°58' E 004°19'1213.5
2014-Oct-29 08:33N 52°48' E 004°09'1514.9
2014-Oct-29 07:33N 52°37' E 003°52'1414.4
2014-Oct-29 06:33N 52°26' E 003°36'6014.9
2014-Oct-29 02:32N 51°42' E 002°31'1515.0
2014-Oct-29 01:33N 51°30' E 002°16'1514.9
2014-Oct-29 00:34N 51°17' E 002°06'1414.5
2014-Oct-28 23:33N 51°08' E 001°47'1313.0
2014-Oct-28 22:33N 50°59' E 001°33'1414.0
2014-Oct-28 21:33N 50°47' E 001°22'4314.3
2014-Oct-28 18:33N 50°24' E 000°25'4414.7
2014-Oct-28 15:33N 50°13' W 000°43'3514.7
2014-Oct-28 13:11N 50°03' W 001°34'1116.7
2014-Oct-28 12:33N 50°01' W 001°50'1616.0
2014-Oct-28 11:34N 49°57' W 002°15'1615.7
2014-Oct-28 10:32N 49°54' W 002°39'1515.4
2014-Oct-28 09:33N 49°47' W 002°60'1515.2
2014-Oct-28 08:34N 49°39' W 003°20'1515.1
2014-Oct-28 07:33N 49°31' W 003°40'13114.6
2014-Oct-27 22:32N 48°05' W 006°10'1614.7
2014-Oct-27 21:28N 47°50' W 006°19'2814.8
2014-Oct-27 19:33N 47°26' W 006°41'1515.2
2014-Oct-27 18:34N 47°12' W 006°51'1814.9
2014-Oct-27 17:21N 46°56' W 007°03'1215.1
2014-Oct-27 16:33N 46°45' W 007°11'1715.1
2014-Oct-27 15:24N 46°30' W 007°22'1314.8
2014-Oct-27 14:30N 46°18' W 007°31'1515.3
2014-Oct-27 13:33N 46°05' W 007°41'48414.6
2014-Oct-26 04:19N 38°09' W 009°41'1114.9
2014-Oct-26 03:33N 37°58' W 009°38'1514.9
2014-Oct-26 02:33N 37°44' W 009°34'1514.9
2014-Oct-26 01:33N 37°29' W 009°29'1614.6
2014-Oct-26 00:29N 37°14' W 009°25'1714.9
2014-Oct-25 23:22N 36°58' W 009°20'1314.4
2014-Oct-25 22:28N 36°47' W 009°11'1814.5
2014-Oct-25 21:14N 36°40' W 008°51'1414.7
2014-Oct-25 20:18N 36°35' W 008°35'15014.8
2014-Oct-25 10:08N 35°57' W 005°35'915.4
2014-Oct-25 09:33N 36°01' W 005°24'22114.7
2014-Oct-24 18:31N 36°28' W 000°53'1414.8
2014-Oct-24 17:32N 36°30' W 000°35'1514.9
2014-Oct-24 16:33N 36°32' W 000°17'1514.8
2014-Oct-24 15:33N 36°36' E 000°01'1515.2
2014-Oct-24 14:33N 36°38' E 000°20'1514.9
2014-Oct-24 13:34N 36°41' E 000°38'1514.9
2014-Oct-24 12:33N 36°44' E 000°56'1514.9
2014-Oct-24 11:33N 36°47' E 001°15'1515.4
2014-Oct-24 10:33N 36°50' E 001°34'1515.1
2014-Oct-24 09:33N 36°52' E 001°52'1514.9
2014-Oct-24 08:33N 36°55' E 002°10'1615.0
2014-Oct-24 07:31N 36°58' E 002°29'1515.0
2014-Oct-24 06:31N 37°01' E 002°48'1515.2
2014-Oct-24 05:31N 37°04' E 003°07'  

Dump ship's entire track history